LiveATC.Net - Listen to live air traffic control over the Internet!


ICAO: LSZR  IATA: ACH   Airport: St. Gallen-Altenrhein Airport
City: Altenrhein
Country: Switzerland   Continent: Europe
LSZR METAR Weather: LSZR 251320Z 33005KT 9999 //////TCU 26/16 Q1019 NOSIG RMK J
LSZR Flight Activity (FlightAware)
LSZR Webcam: (Airport Webcams)
LSZR Tower
Feed Status: DOWN
Last heard on: 2016-07-05 08:07:03 (20 days 5 hours 51 minutes ago)
LSZR Tower Audio Archives
FacilityFrequency
Altenrhein Tower135.425


NOTICE

Unauthorized use prohibited. See LiveATC.net Terms of Service


Find LiveATC Audio Streams


Airport/ARTCC Code

Frequency
(e.g., 124.400, 128.75)
Site-wide search

Browse LiveATC Feeds
LiveATC Coverage Map
Top 50 LiveATC Feeds
Bad Weather Areas

LiveATC FAQ
Offer a LiveATC Feed
Contact LiveATC.net
Press Inquiries

LiveATC on iPhone
LiveATC on Android

Windows Phone
Windows 8/10

LiveATC Mobile
(Mobile browser)

ATC Audio Archives
Interesting Recordings

LiveATC Forums


Home Page
About LiveATC.net
Make a Donation
LiveATC Store

Terms of Use
Privacy Policy

Canadian Air Freqs

AIRMETs/SIGMETs

FAA Airport Status
Nat'l Airspace Status
Arrival Demand Charts


Server Software By:
Icecast.org
Liquidsoap